Satellite-Ground Cal/Val Region Overpasses Predictions

Prediction of Satellite NPP Overpassing Cal/Val Region: PacNW

Region Location: (Latitude: 10.00, Longitude: 139.50) to (Latitude: 22.70, Longitude: 165.60).

Table of predicted overpasses for the next 14.0 days since TLE Epoch: 8/3/2012
Interval Starting Time Starting Location Ending Time Ending Location
1 08/04/2012 02:24:45 ( 10.01, 163.08) 08/04/2012 02:28:21 ( 22.69, 160.06)
2 08/04/2012 14:56:38 ( 22.67, 160.30) 08/04/2012 15:00:13 ( 10.05, 157.30)
3 08/05/2012 02:08:25 ( 19.55, 165.60) 08/05/2012 02:09:18 ( 22.65, 164.83)
4 08/05/2012 03:47:13 ( 10.04, 142.45) 08/05/2012 03:50:44 ( 22.43, 139.51)
5 08/05/2012 14:37:37 ( 22.65, 165.05) 08/05/2012 14:41:12 ( 10.03, 162.05)
6 08/05/2012 16:19:07 ( 22.64, 139.67) 08/05/2012 16:19:18 ( 22.00, 139.51)
7 08/06/2012 03:28:11 ( 10.00, 147.22) 08/06/2012 03:31:47 ( 22.68, 144.20)
8 08/06/2012 16:00:04 ( 22.68, 144.44) 08/06/2012 16:03:39 ( 10.06, 141.44)
9 08/07/2012 03:09:09 ( 10.02, 151.97) 08/07/2012 03:12:45 ( 22.70, 148.96)
10 08/07/2012 15:41:03 ( 22.66, 149.19) 08/07/2012 15:44:38 ( 10.04, 146.19)
11 08/08/2012 02:50:08 ( 10.04, 156.72) 08/08/2012 02:53:43 ( 22.66, 153.72)
12 08/08/2012 15:22:00 ( 22.70, 153.95) 08/08/2012 15:25:36 ( 10.02, 150.94)
13 08/09/2012 02:31:06 ( 10.06, 161.47) 08/09/2012 02:34:41 ( 22.68, 158.47)
14 08/09/2012 15:02:59 ( 22.68, 158.70) 08/09/2012 15:06:34 ( 10.06, 155.71)
15 08/10/2012 02:12:52 ( 12.84, 165.59) 08/10/2012 02:15:40 ( 22.70, 163.22)
16 08/10/2012 03:53:34 ( 10.02, 140.86) 08/10/2012 03:55:13 ( 15.84, 139.51)
17 08/10/2012 14:43:58 ( 22.66, 163.46) 08/10/2012 14:47:32 ( 10.04, 160.46)
18 08/11/2012 03:34:32 ( 10.04, 145.61) 08/11/2012 03:38:07 ( 22.66, 142.61)
19 08/11/2012 14:28:02 ( 11.73, 165.60) 08/11/2012 14:28:31 ( 10.02, 165.21)
20 08/11/2012 16:06:25 ( 22.70, 142.85) 08/11/2012 16:10:01 ( 10.02, 139.83)
21 08/12/2012 03:15:30 ( 10.00, 150.38) 08/12/2012 03:19:06 ( 22.68, 147.36)
22 08/12/2012 15:47:24 ( 22.68, 147.60) 08/12/2012 15:50:59 ( 10.06, 144.60)
23
